Regional Weather Roundup
Issued by NWS Spokane, WA

Home | Current Version | Previous Version | Text Only | Print | Product List | Glossary On
Versions: 1 2 3 4 5 6 7 8 9 10 11 12 13 14 15 16 17 18 19 20 21 22 23 24 25 26 27 28 29 30 31 32 33 34 35 36 37 38 39 40 41 42 43 44 45 46 47 48 49 50
000
NZUS01 KOTX 301910
RWROTX

Eastern Washington/Northern Idaho Roundup
National Weather Service, Spokane WA
1200 PM PDT FRI SEP 30 2016

Note: "fair" indicated few or no clouds below 12,000 feet with no
significant weather and/or obstructions to visibility.

...Northeast Washington and Northern Idaho Panhandle...

CITY           SKY/WX    TMP DP  RH WIND       PRES   REMARKS
Spokane Intl   PTSUNNY   70  44  39 CALM      29.97F
Spokane Downto PTSUNNY   68  52  56 E5        29.97F
Coeur d Alene  MOSUNNY   66  54  65 NE7       29.98F
Deer Park      MOSUNNY   70  46  42 VRB3      29.97F
Sandpoint      MOSUNNY   63  55  77 CALM      29.97S
Bonners Ferry  MOCLDY    63  54  72 NE3       29.97F

...Southeast Washington and southern Idaho Panhandle...

CITY           SKY/WX    TMP DP  RH WIND       PRES   REMARKS
Walla Walla    MOSUNNY   69  41  36 CALM      29.94F
Pullman/Moscow SUNNY     70  41  34 CALM      29.99F
Lewiston       SUNNY     73  47  39 CALM      29.94F
Lowell           N/A     73  52  47 CALM      29.93F
Grangeville    FAIR      75  39  27 S6        29.98F

...Columbia Basin...

CITY           SKY/WX    TMP DP  RH WIND       PRES   REMARKS
Ephrata        PTSUNNY   61  48  62 E6        29.94F
Moses Lake     CLOUDY    62  48  60 S6        29.95F
Pasco          MOSUNNY   72  39  30 VRB5      29.93F
Richland       PTCLDY    74  42  31 SW6       29.92F
Hermiston      MOSUNNY   71  36  27 NW6       29.93F
Pendleton      PTSUNNY   69  34  27 NW8       29.94F

...East Slopes Cascades...

CITY           SKY/WX    TMP DP  RH WIND       PRES   REMARKS
The Dalles     SUNNY     68  38  33 NW13      29.93F
Yakima         SUNNY     70  35  27 CALM      29.93F
Ellensburg     SUNNY     67  35  30 W3        29.94F
Stampede Pass    N/A     49  35  58 SW6       29.99F
Wenatchee      SUNNY     67  39  35 N3        29.93F
Omak           MOSUNNY   64  43  46 CALM      29.95F
Sunnyside      PTCLDY    63  46  54 CALM      29.93F

...Southern British Columbia...

CITY           SKY/WX    TMP DP  RH WIND       PRES   REMARKS
Penticton      MOSUNNY   63  46  55 VRB3      29.93F
Castlegar      PTSUNNY   61  52  72 VRB2      29.97F
Cranbrook      PTSUNNY   66  50  55 VRB8      29.99F
Creston          N/A     70  52  52 SE2         N/A

...Western Montana...

CITY           SKY/WX    TMP DP  RH WIND       PRES   REMARKS
Kalispell      CLEAR     69  49  48 SE7       30.00F
Libby            N/A     64  54  68 N5        29.98F
Missoula       SUNNY     75  46  35 SE12      30.00F

...Neighboring Cities...

CITY           SKY/WX    TMP DP  RH WIND       PRES   REMARKS
Seattle        MOSUNNY   56  47  71 W5        30.03F HAZE
Portland       MOSUNNY   55  49  80 N5        30.03F
Boise          SUNNY     83  37  19 S9        30.02F
Great Falls    CLOUDY    73  48  41 NW6       30.03S
Calgary        MOSUNNY   55  46  71 N7        29.99S



USA.gov is the U.S. government's official web portal to all federal, state and local government web resources and services.